Location: Newark
(9.1167°S, 159.8667°E)
Time: 23:09:37
(UTC+00:00)

Envisat - Pass Details

Date: 28 September 2019
Orbit: 764 x 766 km, 98.1° (Epoch: 14 October)

Event Time Altitude Azimuth Distance (km) Brightness Sun altitude
Rises 07:29:46 0° 155° (SSE) 3,239 6.0 -4.2°
Reaches altitude 10° 07:32:14 10° 146° (SSE) 2,309 5.2 -4.8°
Maximum altitude 07:36:55 38° 79° (E) 1,163 3.5 -6.0°
Drops below altitude 10° 07:41:35 10° 12° (NNE) 2,292 5.3 -7.1°
Sets 07:44:01 0° 4° (N) 3,213 6.2 -7.7°
